FW9327 Weather Reports


time (UTC)temp
F
wind
direction
speed
knots
gust
knots
rain 1hr
in
rain 24hr
in
rain mn
in
humidity
%
barometer
mb
20260906204558 81 5 2.6 7.0 0.00 0.00 0.00 53 1018.3
20260906203057 82 5 2.6 9.6 0.00 0.00 0.00 53 1018.3
20260906201557 82 5 1.7 8.7 0.00 0.00 0.00 54 1018.3
20260906200108 82 5 0.9 4.3 0.00 0.00 0.00 55 1018.3
20260906194558 81 5 4.3 9.6 0.00 0.00 0.00 56 1018.3
20260906193058 81 0 0.9 8.7 0.00 0.00 0.00 57 1018.5
20260906191559 82 5 1.7 5.2 0.00 0.00 0.00 57 1018.5
20260906190105 82 5 1.7 8.7 0.00 0.00 0.00 55 1018.5
20260906184624 81 5 0.9 7.8 0.00 0.00 0.00 59 1018.6
20260906183054 80 0 1.7 7.8 0.00 0.00 0.00 60 1018.5
20260906181602 80 5 2.6 7.8 0.00 0.00 0.00 59 1018.6
20260906180058 80 5 3.5 10.4 0.00 0.00 0.00 59 1018.8
20260906174556 80 5 3.5 10.4 0.00 0.00 0.00 61 1018.8
20260906173118 80 5 5.2 10.4 0.00 0.00 0.00 60 1018.9
20260906171559 81 5 3.5 8.7 0.00 0.00 0.00 59 1019.0
20260906170100 81 5 1.7 7.8 0.00 0.00 0.00 63 1019.2
20260906164603 80 5 1.7 5.2 0.00 0.00 0.00 62 1019.0
20260906163105 80 5 1.7 7.8 0.00 0.00 0.00 64 1019.1
20260906161617 78 5 2.6 9.6 0.00 0.00 0.00 68 1019.0
20260906160109 78 5 1.7 9.6 0.00 0.00 0.00 67 1019.1
20260906154605 78 5 4.3 10.4 0.00 0.00 0.00 69 1018.6
20260906153059 79 5 2.6 7.8 0.00 0.00 0.00 71 1018.6
20260906151557 78 5 4.3 10.4 0.00 0.00 0.00 71 1018.8
20260906150121 78 5 1.7 7.8 0.00 0.00 0.00 74 1019.0
20260906144602 78 5 3.5 7.8 0.00 0.00 0.00 74 1018.9
20260906143100 77 5 1.7 5.2 0.00 0.00 0.00 77 1019.1
20260906141620 75 5 1.7 5.2 0.00 0.00 0.00 82 1018.8
20260906140108 75 5 1.7 5.2 0.00 0.00 0.00 82 1018.8
20260906134617 75 5 1.7 7.0 0.00 0.00 0.00 82 1018.6
20260906133057 73 5 0.9 5.2 0.00 0.00 0.00 88 1018.6
20260906131556 72 5 1.7 7.0 0.00 0.00 0.00 92 1018.6
20260906130121 71 0 1.7 5.2 0.00 0.00 0.00 94 1018.7
20260906124610 70 0 0.0 0.0 0.00 0.00 0.00 95 1018.4
20260906123102 69 0 0.0 0.0 0.00 0.00 0.00 96 1018.4
20260906121605 68 0 0.0 0.0 0.00 0.00 0.00 96 1017.8
20260906120111 66 0 0.0 0.0 0.00 0.00 0.00 95 1017.7
20260906114558 66 0 0.0 0.0 0.00 0.00 0.00 95 1017.5
20260906113108 66 0 0.0 0.0 0.00 0.00 0.00 95 1017.4
20260906111602 66 0 0.0 0.0 0.00 0.00 0.00 94 1017.2
20260906110057 66 0 0.0 0.0 0.00 0.00 0.00 94 1017.3
20260906104557 66 0 0.0 0.0 0.00 0.00 0.00 94 1016.8
20260906103059 67 0 0.0 0.0 0.00 0.00 0.00 94 1016.9
20260906101553 67 0 0.0 0.0 0.00 0.00 0.00 94 1016.9
20260906100057 67 0 0.0 0.0 0.00 0.00 0.00 94 1016.8
20260906094558 67 0 0.0 0.0 0.00 0.00 0.00 93 1016.6
20260906093058 67 0 0.0 0.0 0.00 0.00 0.00 93 1016.6
20260906091550 68 0 0.0 0.0 0.00 0.00 0.00 93 1016.6
20260906090100 68 0 0.0 0.0 0.00 0.00 0.00 92 1016.5
20260906084556 68 0 0.0 0.0 0.00 0.00 0.00 92 1016.6
20260906083054 69 0 0.0 0.9 0.00 0.00 0.00 91 1016.5
20260906081600 70 0 0.0 0.9 0.00 0.00 0.00 91 1016.5
20260906080058 70 0 0.0 0.0 0.00 0.00 0.00 91 1016.7
20260906074557 70 0 0.0 0.0 0.00 0.00 0.00 91 1016.7
20260906073059 70 0 0.0 0.9 0.00 0.00 0.00 91 1016.7
20260906071552 71 0 0.0 0.0 0.00 0.00 0.00 91 1016.6
20260906070058 71 0 0.0 0.9 0.00 0.00 0.00 91 1016.9
20260906064557 71 0 0.0 0.0 0.00 0.00 0.00 90 1016.7
20260906063057 71 0 0.0 2.6 0.00 0.00 0.00 90 1016.8
20260906061606 71 0 0.0 3.5 0.00 0.00 0.00 90 1016.8
20260906060059 71 0 0.0 1.7 0.00 0.00 0.00 90 1016.6
20260906054601 71 0 0.0 3.5 0.00 0.00 0.00 90 1016.4
20260906053058 71 0 0.0 2.6 0.00 0.00 0.00 90 1016.4
20260906051604 71 0 0.0 1.7 0.00 0.00 0.00 90 1016.5
20260906050053 71 0 0.0 0.9 0.00 0.00 0.00 90 1016.5
20260906044559 71 0 0.0 3.5 0.00 0.00 0.00 90 1016.3
20260906043055 71 5 0.0 1.7 0.00 0.00 0.00 89 1016.1
20260906041554 71 0 0.0 4.3 0.00 0.00 0.00 88 1015.8
20260906040050 71 5 0.0 7.0 0.00 0.00 0.00 88 1015.6
20260906034605 72 0 0.0 4.3 0.00 0.00 0.00 87 1015.5
20260906033056 72 0 0.9 5.2 0.00 0.00 0.00 87 1015.5
20260906031555 72 0 0.9 5.2 0.00 0.00 0.00 87 1015.7
20260906030056 72 5 0.0 3.5 0.00 0.00 0.00 87 1015.5
20260906024555 72 0 0.0 7.8 0.00 0.00 0.00 87 1015.7
20260906023051 72 5 0.0 5.2 0.00 0.00 0.00 87 1015.6
20260906021558 72 5 0.9 7.8 0.00 0.00 0.00 87 1015.6
20260906020056 72 5 0.9 7.8 0.00 0.00 0.00 87 1015.5
20260906014559 72 5 0.0 3.5 0.00 0.00 0.00 87 1015.7
20260906013059 72 5 0.0 9.6 0.00 0.00 0.00 86 1015.7
20260906011604 72 5 0.9 5.2 0.00 0.00 0.00 86 1015.7
20260906010058 72 5 1.7 7.8 0.00 0.00 0.00 86 1015.6
20260906004601 72 5 1.7 7.0 0.00 0.00 0.00 85 1015.4
20260906003058 72 5 0.9 5.2 0.00 0.00 0.00 85 1015.1
20260906001555 73 5 0.9 4.3 0.00 0.00 0.00 84 1014.9
20260906000057 74 5 0.9 4.3 0.00 0.00 0.00 83 1015.0
20260905234550 75 0 0.9 7.8 0.00 0.00 0.00 83 1014.9
20260905233106 76 5 0.9 10.4 0.00 0.00 0.00 81 1014.9
20260905231555 76 5 0.9 12.2 0.00 0.00 0.00 80 1014.6
20260905230059 77 5 2.6 7.8 0.00 0.00 0.00 78 1014.5
20260905224559 79 5 1.7 8.7 0.00 0.00 0.00 75 1014.2
20260905223055 81 0 0.9 8.7 0.00 0.00 0.00 73 1014.1
20260905221604 82 5 0.9 8.7 0.00 0.00 0.00 70 1014.0
20260905220058 84 5 0.0 3.5 0.00 0.00 0.00 69 1014.1
20260905214554 83 0 0.0 4.3 0.00 0.00 0.00 70 1014.1
20260905213110 83 5 0.9 4.3 0.00 0.00 0.00 72 1014.1
20260905211608 82 0 0.0 5.2 0.00 0.00 0.00 76 1014.2
20260905210108 80 5 0.9 3.5 0.00 0.00 0.00 78 1014.3